Simultaneous Nadir Overpasses (SNOs) Predictions

Prediction of SNOs between AQUA and METOP-A Satellite Orbit:

Table of predicted SNOs for the next 14.0 days since TLE Epoch: 7/6/2019
Index Date (AQUA) Time (AQUA) Lat,Lon (AQUA) SZA (AQUA ) Date (METOP-A) Time (METOP-A) Lat,Lon (METOP-A) SZA (METOP-A ) Distance(km) Time Diff (sec)
1 07/06/2019 04:23:47 -75.26, -75.07 127.27 07/06/2019 04:23:29 -75.29, -75.05 127.24 3.34 18
2 07/06/2019 05:13:15 75.32, 92.40 52.81 07/06/2019 05:14:08 75.34, 92.45 52.82 3.09 53
3 07/08/2019 23:08:29 74.95,-175.46 52.70 07/08/2019 23:07:20 74.87,-177.20 52.73 51.16 69
4 07/08/2019 23:58:02 -75.28, -8.71 126.93 07/08/2019 23:57:53 -75.28, -8.71 126.94 0.96 9
5 07/09/2019 00:47:30 75.35, 158.74 53.15 07/09/2019 00:48:32 75.33, 158.77 53.12 2.64 62
6 07/11/2019 18:42:49 75.24,-109.80 53.38 07/11/2019 18:41:36 75.24,-109.79 53.39 0.76 73
7 07/11/2019 19:32:16 -75.32, 57.63 126.53 07/11/2019 19:32:15 -75.31, 57.76 126.54 3.66 1
8 07/11/2019 20:21:43 75.34,-134.79 53.50 07/11/2019 20:22:54 75.36,-134.77 53.51 2.38 71
9 07/14/2019 14:17:02 75.24, -43.34 53.78 07/14/2019 14:15:58 75.27, -43.34 53.83 3.26 64
10 07/14/2019 15:06:30 -75.31, 124.09 126.13 07/14/2019 15:06:39 -75.30, 124.08 126.14 1.40 9
11 07/14/2019 15:56:03 75.63, -69.18 54.24 07/14/2019 15:57:12 75.63, -67.60 54.14 43.63 69
12 07/17/2019 09:51:16 75.24, 23.10 54.24 07/17/2019 09:50:22 75.25, 22.96 54.27 3.91 54
13 07/17/2019 10:40:44 -75.31,-169.46 125.68 07/17/2019 10:41:02 -75.33,-169.46 125.66 2.44 18




NCC Satellite Simultaneous Nadir Overpasses (SNOs) Prediction Service
